| time (UTC) | temp F | wind direction | speed MPH | gust MPH | rain 1hr in | rain 24hr in | rain mn in | humidity % | barometer mb |
| 20260507013539 | 64 | 0 | 1.0 | 4.0 | 0.00 | 0.00 | 0.00 | 77 | 1008.7 |
| 20260507012532 | 63 | 0 | 0.0 | 2.0 | 0.00 | 0.00 | 0.00 | 79 | 1008.8 |
| 20260507011545 | 63 | 0 | 0.0 | 3.0 | 0.00 | 0.00 | 0.00 | 80 | 1008.7 |
| 20260507010517 | 63 | 0 | 1.0 | 3.0 | 0.00 | 0.00 | 0.00 | 80 | 1008.7 |
| 20260507005611 | 63 | 0 | 2.0 | 4.0 | 0.00 | 0.00 | 0.00 | 79 | 1008.8 |
| 20260507004602 | 64 | 0 | 2.0 | 3.0 | 0.00 | 0.00 | 0.00 | 75 | 1008.7 |
| 20260507003555 | 64 | 0 | 1.0 | 2.0 | 0.00 | 0.00 | 0.00 | 75 | 1008.7 |
| 20260507002548 | 64 | 0 | 0.0 | 1.0 | 0.00 | 0.00 | 0.00 | 75 | 1008.8 |
| 20260507001540 | 64 | 0 | 0.0 | 2.0 | 0.00 | 0.00 | 0.00 | 74 | 1008.7 |
| 20260507000532 | 64 | 0 | 2.0 | 3.0 | 0.00 | 0.00 | 0.00 | 73 | 1008.7 |
| 20260506235525 | 64 | 0 | 1.0 | 2.0 | 0.00 | 0.00 | 0.00 | 73 | 1008.7 |
| 20260506234517 | 64 | 41 | 1.0 | 3.0 | 0.00 | 0.00 | 0.00 | 73 | 1008.9 |
| 20260506233710 | 64 | 45 | 3.0 | 4.0 | 0.00 | 0.00 | 0.00 | 73 | 1009.0 |
| 20260506232603 | 65 | 45 | 3.0 | 7.0 | 0.00 | 0.00 | 0.00 | 73 | 1009.1 |
| 20260506231617 | 65 | 19 | 3.0 | 6.0 | 0.00 | 0.00 | 0.00 | 73 | 1009.1 |
| 20260506230547 | 64 | 35 | 3.0 | 5.0 | 0.00 | 0.00 | 0.00 | 73 | 1009.2 |
| 20260506225540 | 65 | 40 | 2.0 | 4.0 | 0.00 | 0.00 | 0.00 | 73 | 1009.2 |
| 20260506224533 | 65 | 45 | 2.0 | 5.0 | 0.00 | 0.00 | 0.00 | 72 | 1009.2 |
| 20260506223526 | 65 | 8 | 2.0 | 4.0 | 0.00 | 0.00 | 0.00 | 73 | 1009.2 |
| 20260506222518 | 65 | 33 | 3.0 | 8.0 | 0.00 | 0.00 | 0.00 | 73 | 1009.0 |
| 20260506221610 | 65 | 45 | 4.0 | 6.0 | 0.00 | 0.00 | 0.00 | 72 | 1008.9 |
| 20260506220603 | 65 | 45 | 3.0 | 4.0 | 0.00 | 0.00 | 0.00 | 72 | 1009.1 |
| 20260506215556 | 65 | 35 | 3.0 | 5.0 | 0.00 | 0.00 | 0.00 | 71 | 1009.1 |
| 20260506214607 | 65 | 45 | 3.0 | 7.0 | 0.00 | 0.00 | 0.00 | 72 | 1009.4 |
| 20260506213539 | 65 | 45 | 3.0 | 5.0 | 0.00 | 0.00 | 0.00 | 72 | 1009.4 |
| 20260506212531 | 65 | 64 | 3.0 | 7.0 | 0.00 | 0.00 | 0.00 | 72 | 1009.7 |
| 20260506211523 | 65 | 45 | 2.0 | 5.0 | 0.00 | 0.00 | 0.00 | 72 | 1009.6 |
| 20260506210617 | 65 | 45 | 3.0 | 4.0 | 0.00 | 0.00 | 0.00 | 73 | 1009.5 |
| 20260506205608 | 65 | 81 | 2.0 | 3.0 | 0.00 | 0.00 | 0.00 | 73 | 1009.5 |
| 20260506204620 | 65 | 128 | 2.0 | 4.0 | 0.00 | 0.00 | 0.00 | 73 | 1009.4 |
| 20260506203552 | 65 | 60 | 2.0 | 4.0 | 0.00 | 0.00 | 0.00 | 72 | 1009.4 |
| 20260506202545 | 65 | 90 | 2.0 | 4.0 | 0.00 | 0.00 | 0.00 | 73 | 1009.3 |
| 20260506201556 | 65 | 82 | 2.0 | 4.0 | 0.00 | 0.00 | 0.00 | 72 | 1009.2 |
| 20260506200548 | 65 | 45 | 2.0 | 4.0 | 0.00 | 0.00 | 0.00 | 71 | 1009.0 |
| 20260506195520 | 65 | 105 | 2.0 | 7.0 | 0.00 | 0.00 | 0.00 | 72 | 1008.8 |
| 20260506194613 | 65 | 58 | 4.0 | 7.0 | 0.00 | 0.00 | 0.00 | 72 | 1008.7 |
| 20260506193606 | 65 | 129 | 3.0 | 6.0 | 0.00 | 0.00 | 0.00 | 72 | 1008.6 |
| 20260506192557 | 65 | 71 | 3.0 | 6.0 | 0.00 | 0.00 | 0.00 | 72 | 1008.4 |
| 20260506191550 | 65 | 62 | 3.0 | 5.0 | 0.00 | 0.00 | 0.00 | 72 | 1008.4 |
| 20260506190541 | 65 | 135 | 2.0 | 4.0 | 0.00 | 0.00 | 0.00 | 71 | 1008.5 |
| 20260506185533 | 65 | 77 | 2.0 | 4.0 | 0.00 | 0.00 | 0.00 | 71 | 1008.3 |
| 20260506184526 | 66 | 83 | 4.0 | 8.0 | 0.00 | 0.00 | 0.00 | 71 | 1008.2 |
| 20260506183517 | 66 | 116 | 4.0 | 7.0 | 0.00 | 0.00 | 0.00 | 70 | 1008.0 |
| 20260506182610 | 66 | 114 | 3.0 | 8.0 | 0.00 | 0.00 | 0.00 | 70 | 1007.9 |
| 20260506181602 | 67 | 102 | 3.0 | 6.0 | 0.00 | 0.00 | 0.00 | 70 | 1008.0 |
| 20260506180615 | 67 | 125 | 3.0 | 6.0 | 0.00 | 0.00 | 0.00 | 70 | 1008.0 |
| 20260506175606 | 67 | 84 | 3.0 | 8.0 | 0.00 | 0.00 | 0.00 | 70 | 1007.9 |
| 20260506174538 | 67 | 87 | 5.0 | 9.0 | 0.00 | 0.00 | 0.00 | 70 | 1007.9 |
| 20260506173551 | 68 | 54 | 4.0 | 8.0 | 0.00 | 0.00 | 0.00 | 70 | 1007.9 |
| 20260506172523 | 67 | 117 | 4.0 | 8.0 | 0.00 | 0.00 | 0.00 | 70 | 1007.8 |
| 20260506171615 | 68 | 121 | 5.0 | 8.0 | 0.00 | 0.00 | 0.00 | 69 | 1007.8 |
| 20260506170609 | 68 | 23 | 6.0 | 8.0 | 0.00 | 0.00 | 0.00 | 67 | 1007.7 |
| 20260506165600 | 69 | 89 | 4.0 | 9.0 | 0.00 | 0.00 | 0.00 | 67 | 1007.8 |
| 20260506164552 | 69 | 40 | 4.0 | 8.0 | 0.00 | 0.00 | 0.00 | 68 | 1007.8 |
| 20260506163544 | 69 | 150 | 7.0 | 11.0 | 0.00 | 0.00 | 0.00 | 69 | 1007.7 |
| 20260506162558 | 68 | 99 | 6.0 | 11.0 | 0.00 | 0.00 | 0.00 | 69 | 1007.8 |
| 20260506161529 | 69 | 150 | 6.0 | 9.0 | 0.00 | 0.00 | 0.00 | 68 | 1007.9 |
| 20260506160600 | 68 | 135 | 6.0 | 8.0 | 0.00 | 0.00 | 0.00 | 67 | 1008.0 |
| 20260506155613 | 69 | 111 | 6.0 | 11.0 | 0.00 | 0.00 | 0.00 | 65 | 1007.9 |
| 20260506154606 | 70 | 92 | 6.0 | 10.0 | 0.00 | 0.00 | 0.00 | 64 | 1007.8 |
| 20260506153558 | 70 | 56 | 8.0 | 12.0 | 0.00 | 0.00 | 0.00 | 63 | 1007.7 |
| 20260506152549 | 71 | 64 | 8.0 | 13.0 | 0.00 | 0.00 | 0.00 | 62 | 1007.8 |
| 20260506151541 | 70 | 64 | 7.0 | 13.0 | 0.00 | 0.00 | 0.00 | 61 | 1007.8 |
| 20260506150534 | 70 | 51 | 7.0 | 14.0 | 0.00 | 0.00 | 0.00 | 62 | 1007.9 |
| 20260506145526 | 70 | 143 | 5.0 | 9.0 | 0.00 | 0.00 | 0.00 | 61 | 1007.9 |
| 20260506144520 | 71 | 358 | 6.0 | 10.0 | 0.00 | 0.00 | 0.00 | 60 | 1007.9 |
| 20260506143631 | 72 | 62 | 7.0 | 15.0 | 0.00 | 0.00 | 0.00 | 59 | 1007.9 |
| 20260506142603 | 72 | 58 | 6.0 | 8.0 | 0.00 | 0.00 | 0.00 | 60 | 1007.8 |
| 20260506141556 | 72 | 100 | 7.0 | 15.0 | 0.00 | 0.00 | 0.00 | 59 | 1008.0 |
| 20260506140548 | 72 | 45 | 4.0 | 8.0 | 0.00 | 0.00 | 0.00 | 58 | 1008.0 |
| 20260506135540 | 72 | 17 | 7.0 | 11.0 | 0.00 | 0.00 | 0.00 | 59 | 1008.1 |
| 20260506134533 | 72 | 150 | 7.0 | 12.0 | 0.00 | 0.00 | 0.00 | 57 | 1008.2 |
| 20260506133524 | 72 | 58 | 7.0 | 13.0 | 0.00 | 0.00 | 0.00 | 59 | 1008.3 |
| 20260506132517 | 72 | 48 | 6.0 | 14.0 | 0.00 | 0.00 | 0.00 | 55 | 1008.3 |
| 20260506131610 | 73 | 130 | 7.0 | 12.0 | 0.00 | 0.00 | 0.00 | 54 | 1008.4 |
| 20260506130602 | 73 | 115 | 6.0 | 10.0 | 0.00 | 0.00 | 0.00 | 55 | 1008.4 |
| 20260506125634 | 72 | 29 | 7.0 | 14.0 | 0.00 | 0.00 | 0.00 | 60 | 1008.4 |
| 20260506124546 | 72 | 97 | 6.0 | 11.0 | 0.00 | 0.00 | 0.00 | 58 | 1008.6 |
| 20260506123538 | 73 | 67 | 6.0 | 13.0 | 0.00 | 0.00 | 0.00 | 59 | 1008.6 |
| 20260506122530 | 72 | 121 | 5.0 | 11.0 | 0.00 | 0.00 | 0.00 | 63 | 1008.7 |
| 20260506121522 | 72 | 81 | 7.0 | 14.0 | 0.00 | 0.00 | 0.00 | 60 | 1008.8 |
| 20260506120615 | 73 | 0 | 4.0 | 10.0 | 0.00 | 0.00 | 0.00 | 55 | 1008.8 |
| 20260506115627 | 73 | 146 | 5.0 | 12.0 | 0.00 | 0.00 | 0.00 | 58 | 1009.0 |
| 20260506114559 | 72 | 45 | 8.0 | 14.0 | 0.00 | 0.00 | 0.00 | 60 | 1008.9 |
| 20260506113552 | 73 | 45 | 7.0 | 13.0 | 0.00 | 0.00 | 0.00 | 57 | 1009.0 |
| 20260506112544 | 73 | 90 | 6.0 | 13.0 | 0.00 | 0.00 | 0.00 | 58 | 1009.1 |
| 20260506111536 | 72 | 29 | 9.0 | 15.0 | 0.00 | 0.00 | 0.00 | 62 | 1009.1 |
| 20260506110529 | 71 | 42 | 10.0 | 17.0 | 0.00 | 0.00 | 0.00 | 63 | 1008.9 |
| 20260506105522 | 72 | 33 | 9.0 | 13.0 | 0.00 | 0.00 | 0.00 | 63 | 1009.0 |
| 20260506104615 | 71 | 35 | 8.0 | 15.0 | 0.00 | 0.00 | 0.00 | 63 | 1009.1 |
| 20260506103606 | 71 | 52 | 10.0 | 16.0 | 0.00 | 0.00 | 0.00 | 62 | 1009.1 |
| 20260506102620 | 72 | 28 | 9.0 | 15.0 | 0.00 | 0.00 | 0.00 | 61 | 1009.3 |
| 20260506101612 | 72 | 52 | 8.0 | 13.0 | 0.00 | 0.00 | 0.00 | 61 | 1009.2 |
| 20260506100543 | 73 | 0 | 8.0 | 11.0 | 0.00 | 0.00 | 0.00 | 56 | 1009.2 |
| 20260506095536 | 72 | 34 | 9.0 | 15.0 | 0.00 | 0.00 | 0.00 | 61 | 1009.1 |
| 20260506094527 | 73 | 44 | 9.0 | 15.0 | 0.00 | 0.00 | 0.00 | 56 | 1009.1 |
| 20260506093540 | 72 | 74 | 9.0 | 16.0 | 0.00 | 0.00 | 0.00 | 60 | 1009.0 |
| 20260506092612 | 72 | 44 | 9.0 | 14.0 | 0.00 | 0.00 | 0.00 | 58 | 1008.8 |
| 20260506091604 | 72 | 45 | 9.0 | 14.0 | 0.00 | 0.00 | 0.00 | 58 | 1008.6 |
| 20260506090557 | 72 | 50 | 10.0 | 16.0 | 0.00 | 0.00 | 0.00 | 57 | 1008.7 |
| 20260506085550 | 71 | 31 | 9.0 | 16.0 | 0.00 | 0.00 | 0.00 | 60 | 1008.6 |
| 20260506084541 | 71 | 4 | 9.0 | 17.0 | 0.00 | 0.00 | 0.00 | 61 | 1008.5 |
| 20260506083554 | 71 | 49 | 9.0 | 15.0 | 0.00 | 0.00 | 0.00 | 61 | 1008.6 |
| 20260506082526 | 70 | 56 | 7.0 | 12.0 | 0.00 | 0.00 | 0.00 | 63 | 1008.6 |
| 20260506081518 | 70 | 61 | 9.0 | 14.0 | 0.00 | 0.00 | 0.00 | 63 | 1008.6 |
| 20260506080611 | 71 | 23 | 6.0 | 11.0 | 0.00 | 0.00 | 0.00 | 61 | 1008.6 |
| 20260506072541 | 70 | 66 | 5.0 | 8.0 | 0.00 | 0.00 | 0.00 | 62 | 1008.8 |
| 20260506071534 | 70 | 42 | 4.0 | 6.0 | 0.00 | 0.00 | 0.00 | 60 | 1008.7 |
| 20260506070526 | 69 | 45 | 4.0 | 5.0 | 0.00 | 0.00 | 0.00 | 54 | 1008.8 |
| 20260506061548 | 65 | 45 | 1.0 | 3.0 | 0.00 | 0.00 | 0.00 | 47 | 1008.7 |
| 20260506060540 | 63 | 45 | 2.0 | 3.0 | 0.00 | 0.00 | 0.00 | 53 | 1008.6 |
| 20260506050556 | 60 | 45 | 3.0 | 6.0 | 0.00 | 0.00 | 0.00 | 61 | 1007.7 |
| 20260506044541 | 60 | 0 | 1.0 | 2.0 | 0.00 | 0.00 | 0.00 | 65 | 1007.4 |
| 20260506043534 | 60 | 0 | 0.0 | 2.0 | 0.00 | 0.00 | 0.00 | 68 | 1007.3 |
| 20260506042545 | 60 | 0.0 | 1.0 | 0.00 | 0.00 | 0.00 | 70 | 1007.3 | |
| 20260506041518 | 60 | 0 | 0.0 | 2.0 | 0.00 | 0.00 | 0.00 | 73 | 1007.3 |
| 20260506040611 | 61 | 0.0 | 1.0 | 0.00 | 0.00 | 0.00 | 75 | 1007.3 | |
| 20260506035603 | 61 | 0 | 0.0 | 2.0 | 0.00 | 0.00 | 0.00 | 75 | 1007.4 |
| 20260506034555 | 61 | 0.0 | 1.0 | 0.00 | 0.00 | 0.00 | 75 | 1007.5 | |
| 20260506033548 | 61 | 0 | 0.0 | 2.0 | 0.00 | 0.00 | 0.00 | 76 | 1007.6 |
| 20260506032540 | 61 | 0.0 | 1.0 | 0.00 | 0.00 | 0.00 | 76 | 1007.7 | |
| 20260506031532 | 61 | 0.0 | 1.0 | 0.00 | 0.00 | 0.00 | 75 | 1007.7 | |
| 20260506030526 | 61 | 0.0 | 1.0 | 0.00 | 0.00 | 0.00 | 75 | 1007.7 | |
| 20260506025517 | 61 | 0.0 | 1.0 | 0.00 | 0.00 | 0.00 | 75 | 1007.7 | |
| 20260506024632 | 61 | 0 | 0.0 | 2.0 | 0.00 | 0.00 | 0.00 | 75 | 1007.7 |
| 20260506023603 | 61 | 0 | 0.0 | 2.0 | 0.00 | 0.00 | 0.00 | 74 | 1007.9 |
| 20260506022557 | 62 | 0 | 0.0 | 2.0 | 0.00 | 0.00 | 0.00 | 74 | 1007.8 |
| 20260506021548 | 62 | 0 | 0.0 | 2.0 | 0.00 | 0.00 | 0.00 | 73 | 1007.8 |
| 20260506020600 | 62 | 0 | 1.0 | 2.0 | 0.00 | 0.00 | 0.00 | 73 | 1007.8 |
| 20260506015533 | 62 | 0 | 1.0 | 2.0 | 0.00 | 0.00 | 0.00 | 73 | 1007.8 |
| 20260506014625 | 62 | 0 | 0.0 | 2.0 | 0.00 | 0.00 | 0.00 | 73 | 1007.8 |